LiveATC.Net - Listen to live air traffic control over the Internet!


ICAO: KZPH  IATA: ZPH   Airport: Zephyrhills Municipal Airport
City: Zephyrhills   State/Province: Florida
Country: United States   Continent: North America
KZPH METAR Weather: KZPH 020115Z AUTO 00000KT 10SM SCT050 21/18 A3022 RMK A02 T02100181
KZPH ADS-B Flight Tracking  (ADSBExchange)
KZPH Flight Activity (FlightAware)
KZPH Airport Info   (iFlightPlanner)
KZPH VFR Sectional Chart   (iFlightPlanner) 
KZPH IFR Low Altitude Chart   (iFlightPlanner) 
KZPH IFR High Altitude Chart   (iFlightPlanner) 

KZPH CTAF
Feed Status: UP   Listeners: 0
Listen in your browser - HTML5 player (in browser, HTML5)
Click here to listen with your own player (launches your MP3 player)
Archive Access: KZPH CTAF
FacilityFrequency
Zephyrhills CTAF123.075

NOTICE

Unauthorized use prohibited. See LiveATC.net Terms of Service


Airport/ARTCC Code
Frequency Search
(e.g., 124.400, 128.75)
Site-wide search
 


Browse Feeds
Top 50 Feeds
HF Oceanic Feeds
Coverage Map
Bad Weather Areas

LiveATC FAQ
Offer LiveATC feed
Contact LiveATC.net
Press Inquiries

LiveATC on iPhone
LiveATC on Android

LiveATC Mobile
(Mobile browser)

ATC Audio Archives
Interesting Recordings

LiveATC Forums


Home Page
About LiveATC.net


Terms of Use
Privacy Policy

AIRMETs/SIGMETs

FAA Airport Status
NAS Status
Arrival Demand


Server Software By:
Icecast.org
Liquidsoap